Weather observations for the past three days for
Galliano, South Lafourche Airport
Imperial (Metric)
Date Time (cdt) Wind (mph) Vis. (mi.) Weather Sky Cond. Temperature (ºF) Relative Humidity Wind Chill (°F) Heat Index (°F) Pressure Precipitation (in)
Air Dwpt 6 hour altimeter (in) sea level (mb) 1 hr 3 hr 6 hr
Max. Min.
20 19:35 Calm 10.00 Fair CLR 85.3 75.2 72% 94 30.03 0.0
20 19:15 SW 7 10.00 Thunderstorm SCT028 86.2 74.5 68% 95 30.03 0.0
20 18:55 S 6 10.00 Thunderstorm SCT028 87.8 74.1 89.8 85.3 64% 97 30.02 0.0 0.01
20 18:30 SW 8 10.00 Thunderstorm CLR 88.2 73.6 62% 96 30.01 0.0
20 18:15 S 8 10.00 Thunderstorm in Vicinity CLR 88.3 72.7 60% 96 30.02 0.0
20 17:55 SW 6 10.00 Thunderstorm in Vicinity SCT041 88.3 72 58% 95 30.01 0.0
20 17:35 W 6 10.00 Thunderstorm in Vicinity CLR 88.7 72.7 59% 96 30.02 0.0
20 17:15 W 5 10.00 Fair CLR 88.5 69.8 54% 94 30.02 0.0
20 16:55 W 6 10.00 Fair CLR 88.7 72.7 59% 96 30.01 0.0 0.01
20 16:35 SW 6 10.00 Thunderstorm in Vicinity CLR 88.3 74.1 63% 97 30 0.0 0.01
20 16:15 W 3 10.00 Partly Cloudy SCT025 SCT033 SCT041 87.8 74.7 65% 97 30 0.0
20 15:55 NW 7 G 21 10.00 Overcast BKN025 BKN033 OVC070 87.6 74.8 66% 97 30.02 0.0
20 15:35 W 6 10.00 Thunderstorm in Vicinity SCT027 SCT060 SCT070 87.3 75.4 68% 97 30.04 0.0
20 15:15 W 9 10.00 Thunderstorm in Vicinity CLR 89.1 75.4 64% 100 30.05 0.0
20 14:55 SW 8 10.00 Thunderstorm in Vicinity SCT025 88.9 74.8 63% 99 30.04 0.0
20 14:35 SW 5 10.00 Thunderstorm in Vicinity CLR 88.3 75.9 67% 99 30.04 0.0
20 14:15 SW 6 10.00 Thunderstorm in Vicinity SCT029 SCT034 SCT055 88.2 76.1 68% 99 30.06 0.0
20 13:55 W 6 10.00 Mostly Cloudy SCT026 BKN034 BKN050 87.1 75.9 70% 98 30.05 0.0
20 13:35 NW 8 10.00 Thunderstorm in Vicinity BKN026 BKN034 BKN050 86 74.8 69% 95 30.05 0.0
20 13:15 SW 6 10.00 Thunderstorm SCT026 88.9 75.7 65% 100 30.05 0.0
20 12:55 SW 7 10.00 Thunderstorm in Vicinity SCT100 89.1 74.7 89.6 76.8 63% 99 30.05 0.0 0.02
20 12:35 SW 9 10.00 Thunderstorm in Vicinity CLR 89.4 75.2 63% 100 30.06 0.0
20 12:15 SW 9 10.00 Thunderstorm in Vicinity SCT023 88.5 75.7 66% 99 30.06 0.0
20 11:55 SW 8 0.00 Thunderstorm in Vicinity SCT021 88 77.2 70% 100 30.05 0.0 0.01
20 11:35 SW 8 0.00 Thunderstorm in Vicinity SCT021 87.4 77.2 72% 100 30.06 0.0 0.01
20 11:15 SW 5 10.00 Fair CLR 85.3 76.5 75% 95 30.06 0.0
20 10:55 S 5 10.00 Fair CLR 83.5 75.7 78% 92 30.06 0.0
20 10:35 SW 7 10.00 Partly Cloudy SCT022 83.3 76.1 79% 92 30.06 0.0
20 10:15 S 3 10.00 Fair CLR 81 75.4 83% 87 30.05 0.0
20 09:55 Calm 10.00 Partly Cloudy SCT038 SCT055 SCT070 79.2 74.8 87% 83 30.06 0.0 0.01
20 09:35 SW 3 4.00 Thunderstorm Light Rain in Vicinity SCT029 BKN042 OVC075 79 73.9 85% 83 30.06 0.0
20 09:15 S 7 10.00 Overcast SCT013 BKN039 OVC065 78.4 72.5 82% 81 30.06 0.0
20 08:55 S 8 1.00 Thunderstorm Fog/Mist SCT011 BKN025 BKN039 81.5 77.2 87% 89 30.05 0.0
20 08:35 Calm 10.00 Thunderstorm SCT023 SCT030 80.1 76.1 88% 85 30.04 0.0
20 08:15 Calm 10.00 Thunderstorm SCT023 SCT028 SCT033 80.2 74.7 83% 85 30.04 0.0
20 07:55 S 5 10.00 Thunderstorm SCT022 SCT033 SCT043 79.7 74.8 85% 84 30.03 0.0 0.01
20 07:35 Calm 7.00 Light Rain BKN022 BKN033 BKN043 78.3 74.3 88% 81 30.03 0.0 0.01
20 07:15 Calm 10.00 Mostly Cloudy BKN024 78.6 75.7 91% 82 30.02 0.0
20 06:55 Calm 10.00 Partly Cloudy SCT022 SCT070 SCT110 76.6 73.9 78.1 75.2 91% 77 30.01 0.0 0.01
20 06:35 Calm 10.00 Mostly Cloudy BKN024 BKN030 75.6 72.9 91% 75 30.01 0.0
20 06:15 Calm 10.00 Partly Cloudy SCT026 SCT031 75.7 73 91% 75 30 0.0
20 05:55 Calm 10.00 Fair CLR 75.7 73.2 92% 75 30 0.0
20 05:35 Calm 10.00 Partly Cloudy SCT022 SCT027 75.6 73 92% 75 29.99 0.0
20 05:15 Calm 10.00 Mostly Cloudy BKN022 76.1 73.4 91% 76 29.99 0.0
20 04:35 Calm 10.00 Fair CLR 77 73.6 89% 78 29.99 0.0
20 04:15 Calm 10.00 Fair CLR 77.9 74.3 89% 80 29.99 0.0
20 03:55 SE 5 10.00 Partly Cloudy SCT024 77.9 74.1 88% 80 29.99 0.0 0.01
20 03:35 SE 5 10.00 Partly Cloudy SCT024 77.7 73.4 87% 80 29.99 0.0
20 03:15 S 5 10.00 Fair CLR 76.6 72.9 88% 78 29.99 0.0
20 02:55 S 5 10.00 Partly Cloudy SCT025 SCT041 SCT060 77 72.9 87% 78 29.99 0.0
20 02:35 Calm 10.00 Mostly Cloudy SCT023 BKN028 BKN040 77.2 73.6 89% 79 30 0.0
20 02:15 Calm 10.00 Partly Cloudy SCT017 SCT025 SCT032 76.8 73.4 89% 78 30 0.0
20 01:55 Calm 10.00 Overcast BKN017 BKN022 OVC039 77.9 73.4 86% 80 30.01 0.0 0.01
20 01:35 Calm 10.00 Thunderstorm in Vicinity BKN020 BKN026 OVC033 77.2 73 87% 79 30.02 0.0 0.01
20 01:15 Calm 10.00 Mostly Cloudy SCT021 SCT030 BKN046 76.1 72.7 89% 76 30.02 0.0
20 00:55 Calm 10.00 Mostly Cloudy SCT021 BKN035 BKN060 76.6 71.8 82.8 76.5 85% 78 30.03 0.0 0.01
20 00:35 S 9 G 22 7.00 Rain SCT022 SCT028 BKN055 78.3 73.2 85% 81 30.03 0.0
20 00:15 SE 3 10.00 Fair CLR 79.2 74.5 86% 83 30.03 0.0
19 23:55 SE 3 10.00 Fair CLR 79.2 74.3 85% 83 30.03 0.0
19 23:35 SE 3 10.00 Partly Cloudy SCT027 79.7 74.3 84% 84 30.03 0.0
19 23:15 SE 5 10.00 Partly Cloudy SCT025 79.2 73.9 84% 83 30.02 0.0
19 22:55 SE 3 10.00 Fair CLR 78.8 73.4 84% 82 30.02 0.0
19 22:35 S 3 10.00 Fair CLR 77.9 73.4 86% 80 30.02 0.0
19 22:15 S 3 10.00 Fair CLR 77.2 73.8 89% 79 30.01 0.0
19 21:55 Calm 10.00 Fair CLR 77.4 73.4 88% 79 30 0.0 0.01
19 21:35 S 3 10.00 Fair CLR 78.8 73.9 85% 82 29.99 0.0
19 21:15 Calm 10.00 Fair CLR 78.6 73.9 86% 82 29.98 0.0
19 20:55 SE 5 10.00 Fair CLR 78.4 74.5 88% 81 29.98 0.0 0.01
19 20:35 Calm 10.00 Fair CLR 78.8 74.5 87% 82 29.99 0.0 0.01
19 20:15 SE 3 10.00 Fair CLR 79.7 75.2 86% 84 29.98 0.0 0.01
19 19:55 SE 3 10.00 Partly Cloudy SCT015 80.4 75.4 85% 86 29.97 0.0
19 19:15 Calm 10.00 Fair CLR 82.6 75.2 78% 90 29.99 0.0
19 18:55 SE 3 10.00 Fair CLR 82.4 75.4 82.8 75.7 79% 90 29.98 0.0 0.01
19 18:35 Calm 10.00 Fair CLR 82 75.4 80% 89 29.98 0.0
19 18:15 SE 3 10.00 Fair CLR 82 74.1 77% 88 29.98 0.0
19 17:55 SE 3 10.00 Fair CLR 82.6 74.3 76% 89 29.98 0.0
19 17:35 SE 3 10.00 Fair CLR 81.9 73.4 76% 87 29.98 0.0
19 17:15 SE 3 10.00 Fair CLR 81 71.4 73% 85 29.98 0.0
19 16:55 Calm 10.00 Fair CLR 79.7 71.6 76% 83 29.99 0.0
19 16:15 Calm 10.00 Fair CLR 77.2 72.1 85% 79 30 0.0
19 15:55 S 3 10.00 Fair CLR 76.3 72.5 88% 77 30 0.0 0.01
19 15:35 Calm 10.00 Fair CLR 76.1 73 90% 76 30 0.0
19 15:15 Calm 10.00 Thunderstorm in Vicinity SCT011 76.1 72.9 90% 76 30.01 0.0
19 14:55 Calm 10.00 Thunderstorm in Vicinity BKN009 BKN024 BKN042 76.1 72.9 90% 76 30.02 0.0 0.01
19 14:35 Calm 7.00 Thunderstorm Light Rain SCT013 BKN025 OVC037 77 73.8 90% 78 30.03 0.0 0.01
19 14:15 NW 9 4.00 Thunderstorm Heavy Rain SCT013 BKN036 OVC042 80.2 73.6 80% 85 30.07 0.0 0.01
19 13:55 E 6 10.00 Thunderstorm in Vicinity SCT042 BKN085 BKN120 82.2 73.8 76% 88 30.04 0.0
19 13:35 SE 5 10.00 Thunderstorm in Vicinity SCT085 81.7 72.9 75% 87 30.04 0.0
19 13:15 Calm 10.00 Thunderstorm in Vicinity CLR 80.6 73.2 78% 85 30.03 0.0
19 12:55 Calm 10.00 Partly Cloudy SCT034 SCT040 78.4 73.4 86.2 75 85% 81 30.03 0.0
19 12:35 Calm 10.00 Thunderstorm in Vicinity BKN039 BKN110 77.4 72.9 86% 79 30.04 0.0
19 12:15 NE 3 10.00 Thunderstorm CLR 77.5 72.5 85% 79 30.05 0.0
19 11:55 Calm 10.00 Thunderstorm CLR 78.3 73.6 86% 81 30.03 0.0
19 11:35 N 3 10.00 Thunderstorm Light Rain SCT031 SCT060 BKN080 77.5 71.8 83% 79 30.04 0.0
19 11:15 SW 8 4.00 Thunderstorm Light Rain SCT019 BKN055 OVC085 76.5 70.3 81% 78 30.04 0.0
19 10:55 Calm 10.00 Thunderstorm OVC019 84.7 76.6 77% 95 30.03 0.0
19 10:35 Calm 10.00 Thunderstorm BKN019 BKN024 OVC031 84.6 76.8 78% 95 30.03 0.0
19 10:15 Calm 10.00 Thunderstorm in Vicinity SCT017 BKN029 BKN037 85.6 75.7 72% 95 30.03 0.0
19 09:55 Calm 10.00 Thunderstorm in Vicinity BKN017 BKN026 85.8 75.6 72% 95 30.03 0.0
19 09:35 Calm 10.00 Partly Cloudy SCT015 SCT024 84.9 76.3 75% 95 30.03 0.0
19 09:15 Calm 10.00 Fair CLR 84.2 76.3 77% 93 30.03 0.0
19 08:55 Calm 10.00 Fair CLR 83.7 76.6 79% 93 30.03 0.0
19 08:35 Calm 10.00 Fair CLR 81.1 76.8 87% 88 30.03 0.0
19 08:15 Calm 10.00 Fair CLR 81.7 76.1 83% 89 30.02 0.0
19 07:55 Calm 10.00 Fair CLR 81.5 77 86% 89 30.02 0.0
19 07:35 Calm 10.00 Fair CLR 79 75.7 90% 83 30.01 0.0
19 07:15 NE 3 10.00 Partly Cloudy SCT019 75.9 73.4 92% 76 30 0.0
19 06:55 Calm 10.00 Thunderstorm in Vicinity SCT019 75.2 72.9 76.5 73.8 92% 74 30.01 0.0 0.01
19 06:35 Calm 10.00 Thunderstorm CLR 73.8 71.4 92% 30 0.0
19 06:15 Calm 10.00 Fair CLR 74.3 71.8 92% 29.99 0.0
19 05:55 Calm 10.00 Thunderstorm in Vicinity CLR 73.8 71.4 92% 30 0.0
19 05:35 Calm 10.00 Fair CLR 74.3 71.8 92% 29.99 0.0
19 05:15 Calm 10.00 Fair CLR 74.8 72.5 92% 29.99 0.0
19 04:55 Calm 10.00 Partly Cloudy SCT039 75.2 72.7 92% 74 29.99 0.0
19 04:35 Calm 10.00 Partly Cloudy SCT029 SCT037 75.6 72.9 91% 75 29.99 0.0
19 04:15 Calm 10.00 Fair CLR 75.9 73.4 92% 76 29.98 0.0
19 03:55 S 3 10.00 Partly Cloudy SCT027 75.2 72.7 92% 74 29.99 0.0 0.01
19 03:35 Calm 10.00 Fair CLR 74.7 72 91% 29.99 0.0
19 03:15 Calm 10.00 Fair CLR 74.7 72.1 92% 30 0.0
19 02:55 Calm 10.00 Partly Cloudy SCT070 SCT080 74.7 72 91% 30 0.0
19 02:35 Calm 10.00 Partly Cloudy SCT021 SCT070 SCT080 74.5 71.8 91% 30 0.0
19 02:15 Calm 10.00 Fair CLR 74.7 72.1 92% 30 0.0
19 01:55 Calm 10.00 Fair CLR 74.5 72 92% 30.01 0.0 0.01
19 01:35 Calm 10.00 Fair CLR 74.3 71.8 92% 30.01 0.0
19 01:15 Calm 10.00 Fair CLR 74.5 72 92% 30.01 0.0
19 00:55 Calm 10.00 Fair CLR 75 72.3 80.4 75 91% 74 30.01 0.0
19 00:35 Calm 10.00 Fair CLR 75.6 73 92% 75 30.01 0.0
19 00:15 Calm 10.00 Fair CLR 75.6 72.9 91% 75 30.01 0.0
18 23:55 Calm 10.00 Fair CLR 75.9 73 91% 76 30.01 0.0
18 23:35 Calm 10.00 Fair CLR 76.8 74.1 91% 78 30.02 0.0
18 23:15 Calm 10.00 Fair CLR 76.6 73.8 91% 77 30.02 0.0
18 22:55 Calm 10.00 Fair CLR 76.8 73.8 90% 78 30.01 0.0
18 22:35 Calm 10.00 Partly Cloudy SCT018 77.9 74.3 89% 80 30.02 0.0
18 22:15 Calm 10.00 Fair CLR 79 74.7 87% 83 30.01 0.0
18 21:55 Calm 10.00 Fair CLR 79.7 74.8 85% 84 30 0.0
18 21:35 Calm 10.00 Fair CLR 78.8 75.2 89% 82 29.99 0.0
18 21:15 Calm 10.00 Fair CLR 78.4 75.2 90% 82 29.99 0.0
18 20:55 Calm 10.00 Partly Cloudy SCT018 SCT024 SCT029 78.3 75.2 90% 81 29.99 0.0
18 20:35 Calm 10.00 Mostly Cloudy BKN016 BKN024 BKN029 79.7 75.6 87% 84 29.99 0.0
18 20:15 Calm 10.00 Mostly Cloudy BKN018 BKN024 79.2 75.4 88% 83 29.99 0.0
18 19:55 Calm 10.00 Mostly Cloudy BKN018 BKN024 80.2 75.2 85% 85 29.98 0.0
18 19:35 Calm 10.00 Fair CLR 80.1 74.7 84% 85 29.98 0.0
18 19:15 Calm 10.00 Fair CLR 80.2 74.3 82% 85 29.97 0.0
18 18:55 E 5 10.00 Fair CLR 80.2 73.8 84.4 77.2 81% 85 29.97 0.0 0.01
18 18:35 E 5 10.00 Fair CLR 80.6 74.1 81% 86 29.98 0.0
18 18:15 E 3 10.00 Fair CLR 81.5 74.8 80% 88 30 0.0
18 17:55 Calm 10.00 Fair CLR 81.3 74.5 80% 87 30.01 0.0
18 17:35 Calm 10.00 Fair CLR 81.5 73.4 77% 87 30.02 0.0
18 17:15 Calm 10.00 Fair CLR 81 73.2 77% 86 30.03 0.0
18 16:55 Calm 10.00 Partly Cloudy SCT018 80.2 73.2 79% 85 30.03 0.0 0.01
18 16:35 N 6 10.00 Fair CLR 80.2 73.4 80% 85 30.02 0.0 0.01
18 16:15 NE 3 10.00 Mostly Cloudy SCT017 SCT022 BKN060 79.7 73.6 82% 84 30.03 0.0 0.01
18 15:55 N 12 10.00 Overcast SCT017 BKN022 OVC060 79.7 72.9 80% 84 30.05 0.0
18 15:35 Calm 10.00 Mostly Cloudy SCT015 BKN065 BKN090 83.7 75.6 77% 92 30.04 0.0
18 15:15 Calm 10.00 Partly Cloudy SCT065 SCT075 SCT090 84.2 75.9 76% 93 30.03 0.0
18 14:55 E 3 10.00 Overcast OVC065 83.3 73.9 73% 90 30.04 0.0
18 14:35 S 5 10.00 Mostly Cloudy BKN065 83.8 75.4 76% 92 30.05 0.0
18 14:15 SE 5 10.00 Partly Cloudy SCT070 82.2 75 79% 89 30.05 0.0
18 13:55 SE 3 10.00 Partly Cloudy SCT070 80.6 75.7 85% 86 30.03 0.0
18 13:35 Calm 10.00 Partly Cloudy SCT044 SCT060 SCT075 79.3 75 87% 84 30.03 0.0
18 13:15 Calm 10.00 Thunderstorm Light Rain in Vicinity SCT042 BKN055 BKN075 77.7 73.8 88% 80 30.04 0.0
18 12:55 S 6 10.00 Thunderstorm in Vicinity SCT065 77.2 73.6 84.9 75.7 89% 79 30.05 0.0
18 12:35 Calm 10.00 Thunderstorm Light Drizzle in Vicinity SCT050 SCT055 SCT070 75.7 72.5 90% 76 30.04 0.0
18 12:15 Calm 7.00 Thunderstorm Light Rain SCT042 BKN050 OVC070 76.1 72.7 89% 76 30.05 0.0
18 11:55 NW 9 1.50 Thunderstorm Rain BKN033 BKN047 OVC060 77.4 71.2 82% 79 30.07 0.0
18 11:35 N 15 G 25 5.00 Thunderstorm Rain SCT017 BKN035 OVC045 77.4 71.2 82% 79 30.06 0.0
18 11:15 N 9 10.00 Thunderstorm SCT017 BKN029 BKN036 82.2 74.5 78% 89 30.06 0.0
18 10:55 SE 3 10.00 Thunderstorm in Vicinity SCT029 SCT090 SCT110 83.3 77 81% 93 30.05 0.0
18 10:35 E 3 10.00 Thunderstorm SCT015 SCT090 SCT110 83.5 77.9 83% 94 30.05 0.0
18 10:15 Calm 10.00 Thunderstorm BKN015 BKN023 82.8 77.4 84% 92 30.05 0.0
18 09:55 Calm 10.00 Thunderstorm SCT017 82.8 77.7 85% 92 30.04 0.0
18 09:35 Calm 10.00 Thunderstorm in Vicinity SCT055 SCT075 84.4 78.3 82% 96 30.05 0.0
18 09:15 Calm 10.00 Thunderstorm in Vicinity SCT028 SCT060 BKN095 82.8 78.4 87% 93 30.05 0.0
18 08:55 Calm 10.00 Thunderstorm Light Rain in Vicinity SCT012 BKN024 BKN050 82.6 77.9 86% 92 30.05 0.0
18 08:35 NE 5 10.00 Thunderstorm in Vicinity BKN022 BKN027 BKN032 84.7 78.6 82% 97 30.04 0.0
18 08:15 N 3 7.00 Partly Cloudy SCT024 83.3 77.7 83% 93 30.04 0.0
18 07:55 Calm 10.00 Partly Cloudy SCT024 82.4 78.3 87% 92 30.03 0.0
18 07:35 Calm 10.00 Partly Cloudy SCT024 80.1 77.4 92% 86 30.03 0.0
18 06:35 Calm 7.00 Fair CLR 75.9 73.4 92% 76 30.01 0.0
18 06:15 Calm 10.00 Fair CLR 75.4 72.7 91% 75 30.01 0.0
18 05:55 Calm 10.00 Fair CLR 76.1 73.6 92% 76 30.01 0.0
18 05:35 N 3 10.00 Fair CLR 75.4 72.9 92% 75 30.02 0.0
18 05:15 Calm 10.00 Fair CLR 73.9 71.6 92% 30.01 0.0
18 04:55 Calm 10.00 Fair CLR 74.3 71.8 92% 30 0.0
18 04:35 Calm 10.00 Fair CLR 74.8 72.3 92% 30 0.0
18 04:15 Calm 10.00 Fair CLR 75 72.5 92% 74 29.99 0.0
18 03:55 Calm 10.00 Fair CLR 75.4 72.9 92% 75 29.99 0.0
18 03:35 Calm 10.00 Fair CLR 75.4 72.9 92% 75 29.99 0.0
18 03:15 Calm 10.00 Fair CLR 75 72.5 92% 74 29.98 0.0
18 02:55 Calm 10.00 Fair CLR 75 72.7 92% 74 29.98 0.0
18 02:35 Calm 10.00 Fair CLR 76.3 73.6 91% 76 29.99 0.0
18 02:15 SE 3 10.00 Fair CLR 76.3 73.6 91% 76 29.99 0.0
18 01:55 SE 3 10.00 Fair CLR 74.1 71.8 92% 29.99 0.0
18 01:35 Calm 10.00 Fair CLR 74.3 71.8 92% 30 0.0
18 01:15 Calm 10.00 Fair CLR 74.7 72.1 92% 30.01 0.0
18 00:55 Calm 10.00 Fair CLR 74.7 72 80.2 74.7 91% 30.02 0.0
18 00:35 Calm 10.00 Fair CLR 75 72.3 91% 74 30.03 0.0
18 00:15 Calm 10.00 Fair CLR 75.4 72.3 90% 75 30.04 0.0
17 23:55 Calm 10.00 Fair CLR 76.8 73.4 89% 78 30.05 0.0
17 23:35 Calm 10.00 Partly Cloudy SCT023 SCT030 76.5 73.2 90% 77 30.06 0.0
17 23:15 NW 3 10.00 Partly Cloudy SCT026 76.1 72.9 90% 76 30.06 0.0
17 22:55 Calm 10.00 Fair CLR 75.6 72.9 91% 75 30.06 0.0
17 22:35 Calm 10.00 Fair CLR 76.1 73 90% 76 30.05 0.0
17 22:15 Calm 10.00 Fair CLR 76.5 73.2 90% 77 30.05 0.0
17 21:55 N 5 10.00 Mostly Cloudy SCT026 BKN036 76.8 73.4 89% 78 30.05 0.0
17 21:35 Calm 10.00 Partly Cloudy SCT028 77.2 73.6 89% 79 30.04 0.0
17 21:15 Calm 10.00 Fair CLR 77.9 73.9 88% 80 30.03 0.0
17 20:55 N 6 10.00 Fair CLR 77.9 73.9 88% 80 30.01 0.0
17 20:35 Calm 10.00 Fair CLR 78.6 74.1 86% 82 30 0.0
17 20:15 W 3 10.00 Partly Cloudy SCT090 SCT120 79.9 73.8 82% 84 30 0.0
17 19:55 SE 6 G 16 10.00 Partly Cloudy SCT090 SCT120 79.9 72.9 79% 84 29.96 0.0
Date Time (cdt) Wind (mph) Vis. (mi.) Weather Sky Cond. Air Dwpt Max. Min. Relative Humidity Wind Chill (°F) Heat Index (°F) altimeter (in) sea level (mb) 1 hr 3 hr 6 hr
6 hour
Temperature (ºF) Pressure Precipitation (in)